| time (UTC) | temp F | wind direction | speed MPH | gust MPH | rain 1hr in | rain 24hr in | rain mn in | humidity % | barometer mb |
| 20260504150904 | 65 | 203 | 4.0 | 13.0 | 0.00 | 0.00 | 0.00 | 38 | 1012.8 |
| 20260504150400 | 65 | 192 | 6.0 | 13.0 | 0.00 | 0.00 | 0.00 | 38 | 1012.9 |
| 20260504141314 | 62 | 190 | 3.0 | 9.0 | 0.00 | 0.00 | 0.00 | 49 | 1013.1 |
| 20260504140809 | 61 | 223 | 4.0 | 9.0 | 0.00 | 0.00 | 0.00 | 50 | 1013.3 |
| 20260504140303 | 61 | 263 | 3.0 | 8.0 | 0.00 | 0.00 | 0.00 | 50 | 1013.3 |
| 20260504140104 | 60 | 178 | 2.0 | 9.0 | 0.00 | 0.00 | 0.00 | 51 | 1013.5 |
| 20260504130717 | 57 | 194 | 3.0 | 8.0 | 0.00 | 0.00 | 0.00 | 58 | 1013.8 |
| 20260504130214 | 57 | 203 | 4.0 | 8.0 | 0.00 | 0.00 | 0.00 | 59 | 1013.9 |
| 20260504120109 | 44 | 213 | 0.0 | 1.0 | 0.00 | 0.00 | 0.00 | 77 | 1014.1 |
| 20260504110457 | 37 | 213 | 0.0 | 0.0 | 0.00 | 0.00 | 0.00 | 87 | 1014.3 |
| 20260504100614 | 34 | 213 | 0.0 | 0.0 | 0.00 | 0.00 | 0.00 | 87 | 1014.1 |
| 20260504081629 | 36 | 213 | 0.0 | 0.0 | 0.00 | 0.00 | 0.00 | 83 | 1014.1 |
| 20260504081545 | 36 | 0 | 0.0 | 0.0 | 0.00 | 0.00 | 0.00 | 82 | 1014.3 |
| 20260504081107 | 36 | 213 | 0.0 | 0.0 | 0.00 | 0.00 | 0.00 | 82 | 1014.1 |
| 20260504080602 | 36 | 213 | 0.0 | 0.0 | 0.00 | 0.00 | 0.00 | 82 | 1014.1 |
| 20260504050211 | 40 | 213 | 0.0 | 0.0 | 0.00 | 0.00 | 0.00 | 73 | 1014.1 |
| 20260504045711 | 40 | 213 | 0.0 | 0.0 | 0.00 | 0.00 | 0.00 | 73 | 1014.2 |
| 20260504045421 | 40 | 213 | 0.0 | 0.0 | 0.00 | 0.00 | 0.00 | 73 | 1014.0 |
| 20260504044645 | 41 | 213 | 0.0 | 0.0 | 0.00 | 0.00 | 0.00 | 71 | 1013.9 |
| 20260504044554 | 40 | 0 | 0.0 | 0.0 | 0.00 | 0.00 | 0.00 | 70 | 1014.2 |
| 20260504044139 | 41 | 213 | 0.0 | 0.0 | 0.00 | 0.00 | 0.00 | 71 | 1013.9 |
| 20260504043620 | 41 | 213 | 0.0 | 0.0 | 0.00 | 0.00 | 0.00 | 72 | 1014.0 |
| 20260504043113 | 41 | 213 | 0.0 | 0.0 | 0.00 | 0.00 | 0.00 | 72 | 1014.1 |
| 20260504043047 | 40 | 0 | 0.0 | 0.0 | 0.00 | 0.00 | 0.00 | 72 | 1014.2 |
| 20260504042832 | 41 | 213 | 0.0 | 0.0 | 0.00 | 0.00 | 0.00 | 72 | 1013.9 |
| 20260504042058 | 41 | 213 | 0.0 | 0.0 | 0.00 | 0.00 | 0.00 | 72 | 1013.9 |
| 20260504041557 | 41 | 213 | 0.0 | 0.0 | 0.00 | 0.00 | 0.00 | 73 | 1013.8 |
| 20260504041537 | 41 | 0 | 0.0 | 0.0 | 0.00 | 0.00 | 0.00 | 72 | 1014.0 |
| 20260504041049 | 41 | 213 | 0.0 | 0.0 | 0.00 | 0.00 | 0.00 | 72 | 1013.8 |
| 20260504040545 | 42 | 213 | 0.0 | 0.0 | 0.00 | 0.00 | 0.00 | 71 | 1013.7 |
| 20260504040045 | 41 | 0 | 0.0 | 0.0 | 0.00 | 0.00 | 0.00 | 71 | 1013.9 |
| 20260504035537 | 42 | 213 | 0.0 | 0.0 | 0.00 | 0.00 | 0.00 | 71 | 1013.6 |
| 20260504035038 | 43 | 213 | 0.0 | 0.0 | 0.00 | 0.00 | 0.00 | 68 | 1013.6 |
| 20260504034551 | 44 | 0 | 0.0 | 2.0 | 0.00 | 0.00 | 0.00 | 66 | 1013.7 |
| 20260504034533 | 44 | 213 | 0.0 | 2.0 | 0.00 | 0.00 | 0.00 | 66 | 1013.5 |
| 20260504034023 | 45 | 213 | 0.0 | 2.0 | 0.00 | 0.00 | 0.00 | 63 | 1013.5 |
| 20260504033518 | 44 | 213 | 0.0 | 0.0 | 0.00 | 0.00 | 0.00 | 65 | 1013.6 |
| 20260504033236 | 44 | 213 | 0.0 | 0.0 | 0.00 | 0.00 | 0.00 | 65 | 1013.3 |
| 20260504033054 | 44 | 0 | 0.0 | 0.0 | 0.00 | 0.00 | 0.00 | 64 | 1013.5 |
| 20260504032504 | 45 | 213 | 0.0 | 0.0 | 0.00 | 0.00 | 0.00 | 64 | 1013.4 |
| 20260504031958 | 47 | 213 | 0.0 | 0.0 | 0.00 | 0.00 | 0.00 | 58 | 1013.4 |
| 20260504031540 | 47 | 0 | 0.0 | 0.0 | 0.00 | 0.00 | 0.00 | 57 | 1013.6 |
| 20260504031435 | 47 | 213 | 0.0 | 0.0 | 0.00 | 0.00 | 0.00 | 57 | 1013.4 |
| 20260504030934 | 48 | 213 | 0.0 | 0.0 | 0.00 | 0.00 | 0.00 | 55 | 1013.4 |
| 20260504030426 | 47 | 213 | 0.0 | 0.0 | 0.00 | 0.00 | 0.00 | 57 | 1013.4 |
| 20260504030038 | 47 | 0 | 0.0 | 0.0 | 0.00 | 0.00 | 0.00 | 56 | 1013.5 |
| 20260504025916 | 48 | 213 | 0.0 | 0.0 | 0.00 | 0.00 | 0.00 | 56 | 1013.3 |
| 20260504025411 | 48 | 213 | 0.0 | 0.0 | 0.00 | 0.00 | 0.00 | 56 | 1013.3 |
| 20260504024546 | 48 | 0 | 0.0 | 0.0 | 0.00 | 0.00 | 0.00 | 52 | 1013.6 |
| 20260504024401 | 49 | 213 | 0.0 | 0.0 | 0.00 | 0.00 | 0.00 | 53 | 1013.4 |
| 20260504024128 | 49 | 213 | 0.0 | 0.0 | 0.00 | 0.00 | 0.00 | 51 | 1013.3 |
| 20260504023341 | 49 | 213 | 0.0 | 1.0 | 0.00 | 0.00 | 0.00 | 51 | 1013.3 |
| 20260504023042 | 49 | 0 | 0.0 | 1.0 | 0.00 | 0.00 | 0.00 | 50 | 1013.6 |
| 20260504022835 | 50 | 213 | 0.0 | 1.0 | 0.00 | 0.00 | 0.00 | 50 | 1013.4 |
| 20260504022332 | 50 | 213 | 0.0 | 0.0 | 0.00 | 0.00 | 0.00 | 51 | 1013.5 |
| 20260504022047 | 50 | 213 | 0.0 | 0.0 | 0.00 | 0.00 | 0.00 | 49 | 1013.5 |
| 20260504021549 | 50 | 0 | 0.0 | 2.0 | 0.00 | 0.00 | 0.00 | 50 | 1013.6 |
| 20260504021324 | 51 | 213 | 0.0 | 1.0 | 0.00 | 0.00 | 0.00 | 48 | 1013.5 |
| 20260504020822 | 51 | 213 | 0.0 | 1.0 | 0.00 | 0.00 | 0.00 | 48 | 1013.4 |
| 20260504020307 | 51 | 213 | 0.0 | 3.0 | 0.00 | 0.00 | 0.00 | 47 | 1013.3 |
| 20260504020040 | 51 | 0 | 0.0 | 3.0 | 0.00 | 0.00 | 0.00 | 46 | 1013.5 |
| 20260504015801 | 51 | 213 | 0.0 | 3.0 | 0.00 | 0.00 | 0.00 | 47 | 1013.3 |
| 20260504015255 | 52 | 213 | 0.0 | 3.0 | 0.00 | 0.00 | 0.00 | 45 | 1013.3 |
| 20260504014750 | 52 | 213 | 1.0 | 3.0 | 0.00 | 0.00 | 0.00 | 45 | 1013.1 |
| 20260504014539 | 52 | 213 | 0.0 | 4.0 | 0.00 | 0.00 | 0.00 | 45 | 1013.4 |
| 20260504014238 | 53 | 213 | 1.0 | 4.0 | 0.00 | 0.00 | 0.00 | 44 | 1013.3 |
| 20260504013733 | 53 | 213 | 2.0 | 4.0 | 0.00 | 0.00 | 0.00 | 43 | 1013.0 |
| 20260504013228 | 53 | 213 | 2.0 | 4.0 | 0.00 | 0.00 | 0.00 | 44 | 1013.0 |
| 20260504013042 | 53 | 212 | 0.0 | 6.0 | 0.00 | 0.00 | 0.00 | 43 | 1013.3 |
| 20260504012722 | 53 | 212 | 1.0 | 6.0 | 0.00 | 0.00 | 0.00 | 43 | 1013.0 |
| 20260504012218 | 53 | 212 | 1.0 | 6.0 | 0.00 | 0.00 | 0.00 | 44 | 1013.0 |
| 20260504011713 | 53 | 239 | 2.0 | 4.0 | 0.00 | 0.00 | 0.00 | 45 | 1012.9 |
| 20260504011545 | 53 | 239 | 1.0 | 4.0 | 0.00 | 0.00 | 0.00 | 44 | 1013.3 |
| 20260504011209 | 53 | 239 | 2.0 | 4.0 | 0.00 | 0.00 | 0.00 | 44 | 1013.0 |
| 20260504010707 | 53 | 239 | 1.0 | 4.0 | 0.00 | 0.00 | 0.00 | 44 | 1013.0 |
| 20260504010159 | 53 | 239 | 1.0 | 4.0 | 0.00 | 0.00 | 0.00 | 44 | 1013.0 |
| 20260504010053 | 53 | 239 | 1.0 | 5.0 | 0.00 | 0.00 | 0.00 | 44 | 1013.2 |
| 20260504005653 | 53 | 214 | 0.0 | 2.0 | 0.00 | 0.00 | 0.00 | 43 | 1012.9 |
| 20260504005151 | 54 | 214 | 0.0 | 3.0 | 0.00 | 0.00 | 0.00 | 43 | 1012.8 |
| 20260504004645 | 54 | 214 | 1.0 | 4.0 | 0.00 | 0.00 | 0.00 | 42 | 1012.7 |
| 20260504004550 | 54 | 214 | 0.0 | 5.0 | 0.00 | 0.00 | 0.00 | 42 | 1013.0 |
| 20260504004140 | 54 | 213 | 1.0 | 4.0 | 0.00 | 0.00 | 0.00 | 42 | 1012.7 |
| 20260504003638 | 55 | 215 | 0.0 | 4.0 | 0.00 | 0.00 | 0.00 | 41 | 1012.7 |
| 20260504003129 | 55 | 215 | 1.0 | 4.0 | 0.00 | 0.00 | 0.00 | 40 | 1012.5 |
| 20260504003039 | 55 | 0 | 0.0 | 4.0 | 0.00 | 0.00 | 0.00 | 40 | 1012.7 |
| 20260504002624 | 56 | 215 | 1.0 | 4.0 | 0.00 | 0.00 | 0.00 | 40 | 1012.4 |
| 20260504002120 | 56 | 215 | 1.0 | 4.0 | 0.00 | 0.00 | 0.00 | 39 | 1012.4 |
| 20260504001619 | 56 | 215 | 1.0 | 4.0 | 0.00 | 0.00 | 0.00 | 39 | 1012.1 |
| 20260504001605 | 55 | 214 | 0.0 | 5.0 | 0.00 | 0.00 | 0.00 | 38 | 1012.6 |
| 20260504001109 | 56 | 215 | 1.0 | 5.0 | 0.00 | 0.00 | 0.00 | 39 | 1012.2 |
| 20260504000605 | 56 | 215 | 0.0 | 5.0 | 0.00 | 0.00 | 0.00 | 38 | 1012.0 |
| 20260504000053 | 57 | 215 | 1.0 | 4.0 | 0.00 | 0.00 | 0.00 | 38 | 1012.1 |
| 20260504000048 | 56 | 214 | 0.0 | 4.0 | 0.00 | 0.00 | 0.00 | 38 | 1012.3 |
| 20260503235820 | 57 | 215 | 1.0 | 6.0 | 0.00 | 0.00 | 0.00 | 38 | 1012.0 |
| 20260503235256 | 58 | 215 | 2.0 | 6.0 | 0.00 | 0.00 | 0.00 | 37 | 1012.0 |
| 20260503234753 | 58 | 207 | 2.0 | 5.0 | 0.00 | 0.00 | 0.00 | 36 | 1011.9 |
| 20260503234543 | 57 | 207 | 1.0 | 5.0 | 0.00 | 0.00 | 0.00 | 36 | 1012.2 |
| 20260503234258 | 58 | 236 | 2.0 | 8.0 | 0.00 | 0.00 | 0.00 | 37 | 1012.0 |
| 20260503233529 | 58 | 283 | 2.0 | 8.0 | 0.00 | 0.00 | 0.00 | 36 | 1011.8 |
| 20260503233039 | 58 | 263 | 2.0 | 10.0 | 0.00 | 0.00 | 0.00 | 35 | 1012.1 |
| 20260503233022 | 58 | 304 | 2.0 | 9.0 | 0.00 | 0.00 | 0.00 | 36 | 1011.8 |
| 20260503232517 | 58 | 216 | 4.0 | 8.0 | 0.00 | 0.00 | 0.00 | 36 | 1011.9 |
| 20260503232016 | 59 | 273 | 4.0 | 8.0 | 0.00 | 0.00 | 0.00 | 35 | 1011.7 |
| 20260503231542 | 59 | 287 | 2.0 | 10.0 | 0.00 | 0.00 | 0.00 | 34 | 1012.0 |
| 20260503231515 | 59 | 290 | 3.0 | 10.0 | 0.00 | 0.00 | 0.00 | 35 | 1011.8 |
| 20260503231008 | 59 | 280 | 3.0 | 10.0 | 0.00 | 0.00 | 0.00 | 34 | 1011.7 |
| 20260503230503 | 60 | 222 | 2.0 | 14.0 | 0.00 | 0.00 | 0.00 | 34 | 1011.7 |
| 20260503230040 | 59 | 234 | 3.0 | 16.0 | 0.00 | 0.00 | 0.00 | 34 | 1011.9 |
| 20260503225958 | 60 | 234 | 4.0 | 16.0 | 0.00 | 0.00 | 0.00 | 35 | 1011.6 |
| 20260503225457 | 60 | 300 | 6.0 | 13.0 | 0.00 | 0.00 | 0.00 | 34 | 1011.5 |
| 20260503224949 | 60 | 261 | 7.0 | 13.0 | 0.00 | 0.00 | 0.00 | 33 | 1011.5 |
| 20260503224538 | 60 | 295 | 4.0 | 11.0 | 0.00 | 0.00 | 0.00 | 33 | 1011.8 |
| 20260503224445 | 60 | 178 | 4.0 | 11.0 | 0.00 | 0.00 | 0.00 | 34 | 1011.6 |
| 20260503224159 | 60 | 235 | 2.0 | 9.0 | 0.00 | 0.00 | 0.00 | 34 | 1011.6 |
| 20260503223442 | 60 | 251 | 4.0 | 9.0 | 0.00 | 0.00 | 0.00 | 34 | 1011.7 |
| 20260503223044 | 59 | 189 | 2.0 | 10.0 | 0.00 | 0.00 | 0.00 | 34 | 1012.0 |
| 20260503222937 | 60 | 200 | 2.0 | 10.0 | 0.00 | 0.00 | 0.00 | 34 | 1011.7 |
| 20260503222434 | 60 | 277 | 4.0 | 10.0 | 0.00 | 0.00 | 0.00 | 33 | 1011.7 |
| 20260503221929 | 60 | 241 | 4.0 | 10.0 | 0.00 | 0.00 | 0.00 | 34 | 1011.6 |
| 20260503221547 | 60 | 304 | 4.0 | 12.0 | 0.00 | 0.00 | 0.00 | 33 | 1011.8 |
| 20260503221426 | 60 | 202 | 4.0 | 9.0 | 0.00 | 0.00 | 0.00 | 35 | 1011.6 |
| 20260503220926 | 60 | 242 | 4.0 | 10.0 | 0.00 | 0.00 | 0.00 | 33 | 1011.6 |
| 20260503220423 | 61 | 294 | 6.0 | 10.0 | 0.00 | 0.00 | 0.00 | 34 | 1011.7 |
| 20260503215918 | 61 | 290 | 5.0 | 12.0 | 0.00 | 0.00 | 0.00 | 32 | 1011.6 |
| 20260503215415 | 61 | 234 | 6.0 | 12.0 | 0.00 | 0.00 | 0.00 | 33 | 1011.6 |
| 20260503214911 | 61 | 282 | 8.0 | 12.0 | 0.00 | 0.00 | 0.00 | 32 | 1011.6 |
| 20260503214537 | 60 | 300 | 5.0 | 15.0 | 0.00 | 0.00 | 0.00 | 32 | 1011.8 |
| 20260503214407 | 61 | 233 | 7.0 | 15.0 | 0.00 | 0.00 | 0.00 | 31 | 1011.6 |
| 20260503213901 | 60 | 270 | 6.0 | 15.0 | 0.00 | 0.00 | 0.00 | 32 | 1011.6 |
| 20260503213358 | 60 | 313 | 7.0 | 15.0 | 0.00 | 0.00 | 0.00 | 33 | 1011.7 |
| 20260503213040 | 60 | 286 | 5.0 | 15.0 | 0.00 | 0.00 | 0.00 | 31 | 1011.8 |
| 20260503212853 | 61 | 288 | 6.0 | 15.0 | 0.00 | 0.00 | 0.00 | 32 | 1011.5 |
| 20260503212347 | 61 | 261 | 6.0 | 16.0 | 0.00 | 0.00 | 0.00 | 31 | 1011.6 |
| 20260503211840 | 61 | 263 | 6.0 | 16.0 | 0.00 | 0.00 | 0.00 | 33 | 1011.5 |
| 20260503211559 | 61 | 263 | 5.0 | 16.0 | 0.00 | 0.00 | 0.00 | 30 | 1011.7 |
| 20260503211335 | 61 | 289 | 5.0 | 15.0 | 0.00 | 0.00 | 0.00 | 33 | 1011.4 |
| 20260503211051 | 62 | 290 | 5.0 | 15.0 | 0.00 | 0.00 | 0.00 | 31 | 1011.5 |
| 20260503210330 | 61 | 281 | 7.0 | 15.0 | 0.00 | 0.00 | 0.00 | 31 | 1011.5 |
| 20260503210041 | 61 | 290 | 8.0 | 16.0 | 0.00 | 0.00 | 0.00 | 31 | 1011.7 |
| 20260503205827 | 61 | 294 | 8.0 | 15.0 | 0.00 | 0.00 | 0.00 | 32 | 1011.4 |
| 20260503205322 | 61 | 285 | 4.0 | 14.0 | 0.00 | 0.00 | 0.00 | 32 | 1011.7 |
| 20260503204819 | 61 | 291 | 8.0 | 16.0 | 0.00 | 0.00 | 0.00 | 32 | 1011.6 |
| 20260503204539 | 60 | 267 | 9.0 | 16.0 | 0.00 | 0.00 | 0.00 | 31 | 1012.1 |
| 20260503204314 | 61 | 303 | 11.0 | 16.0 | 0.00 | 0.00 | 0.00 | 31 | 1011.8 |
| 20260503203810 | 61 | 280 | 8.0 | 15.0 | 0.00 | 0.00 | 0.00 | 32 | 1011.7 |
| 20260503203305 | 61 | 207 | 6.0 | 18.0 | 0.00 | 0.00 | 0.00 | 33 | 1011.7 |
| 20260503203037 | 60 | 289 | 7.0 | 18.0 | 0.00 | 0.00 | 0.00 | 33 | 1012.0 |
| 20260503202800 | 61 | 327 | 11.0 | 18.0 | 0.00 | 0.00 | 0.00 | 31 | 1011.9 |
| 20260503202521 | 61 | 246 | 10.0 | 18.0 | 0.00 | 0.00 | 0.00 | 30 | 1011.9 |
| 20260503201755 | 62 | 263 | 7.0 | 13.0 | 0.00 | 0.00 | 0.00 | 34 | 1011.9 |
| 20260503201537 | 60 | 271 | 7.0 | 14.0 | 0.00 | 0.00 | 0.00 | 32 | 1012.1 |
| 20260503201521 | 61 | 258 | 6.0 | 13.0 | 0.00 | 0.00 | 0.00 | 36 | 1011.8 |
| 20260503200748 | 61 | 319 | 7.0 | 13.0 | 0.00 | 0.00 | 0.00 | 32 | 1011.9 |
| 20260503200248 | 61 | 300 | 8.0 | 12.0 | 0.00 | 0.00 | 0.00 | 34 | 1012.0 |
| 20260503200044 | 60 | 308 | 6.0 | 14.0 | 0.00 | 0.00 | 0.00 | 35 | 1012.2 |
| 20260503195739 | 61 | 313 | 5.0 | 12.0 | 0.00 | 0.00 | 0.00 | 34 | 1012.1 |
| 20260503195232 | 60 | 297 | 5.0 | 15.0 | 0.00 | 0.00 | 0.00 | 35 | 1012.2 |
| 20260503194727 | 61 | 329 | 7.0 | 18.0 | 0.00 | 0.00 | 0.00 | 35 | 1012.1 |
| 20260503194539 | 60 | 259 | 5.0 | 18.0 | 0.00 | 0.00 | 0.00 | 36 | 1012.4 |
| 20260503194223 | 60 | 300 | 7.0 | 18.0 | 0.00 | 0.00 | 0.00 | 35 | 1012.2 |
| 20260503193938 | 60 | 296 | 8.0 | 18.0 | 0.00 | 0.00 | 0.00 | 34 | 1012.4 |
| 20260503193213 | 60 | 241 | 10.0 | 18.0 | 0.00 | 0.00 | 0.00 | 33 | 1012.4 |
| 20260503193048 | 59 | 303 | 9.0 | 21.0 | 0.00 | 0.00 | 0.00 | 34 | 1012.5 |
| 20260503192712 | 60 | 267 | 7.0 | 18.0 | 0.00 | 0.00 | 0.00 | 34 | 1012.4 |
| 20260503192204 | 59 | 221 | 8.0 | 16.0 | 0.00 | 0.00 | 0.00 | 34 | 1012.4 |
| 20260503191918 | 60 | 276 | 8.0 | 16.0 | 0.00 | 0.00 | 0.00 | 32 | 1012.4 |
| 20260503191538 | 60 | 307 | 8.0 | 14.0 | 0.00 | 0.00 | 0.00 | 35 | 1012.8 |
| 20260503191153 | 60 | 333 | 8.0 | 13.0 | 0.00 | 0.00 | 0.00 | 36 | 1012.4 |
| 20260503190909 | 59 | 255 | 6.0 | 12.0 | 0.00 | 0.00 | 0.00 | 37 | 1012.5 |
| 20260503190144 | 59 | 301 | 7.0 | 16.0 | 0.00 | 0.00 | 0.00 | 36 | 1012.6 |
| 20260503190040 | 58 | 289 | 6.0 | 16.0 | 0.00 | 0.00 | 0.00 | 34 | 1013.0 |
| 20260503185640 | 58 | 309 | 7.0 | 16.0 | 0.00 | 0.00 | 0.00 | 36 | 1012.8 |
| 20260503185137 | 58 | 288 | 5.0 | 14.0 | 0.00 | 0.00 | 0.00 | 37 | 1012.8 |
| 20260503184634 | 58 | 276 | 9.0 | 14.0 | 0.00 | 0.00 | 0.00 | 35 | 1012.8 |
| 20260503184545 | 58 | 273 | 10.0 | 16.0 | 0.00 | 0.00 | 0.00 | 34 | 1013.1 |
| 20260503184130 | 59 | 318 | 10.0 | 16.0 | 0.00 | 0.00 | 0.00 | 35 | 1012.9 |
| 20260503183625 | 58 | 277 | 7.0 | 16.0 | 0.00 | 0.00 | 0.00 | 38 | 1012.8 |
| 20260503183125 | 58 | 298 | 7.0 | 18.0 | 0.00 | 0.00 | 0.00 | 34 | 1013.0 |
| 20260503183042 | 57 | 273 | 7.0 | 18.0 | 0.00 | 0.00 | 0.00 | 35 | 1013.2 |
| 20260503182835 | 58 | 259 | 11.0 | 18.0 | 0.00 | 0.00 | 0.00 | 35 | 1013.0 |
| 20260503182111 | 57 | 232 | 8.0 | 22.0 | 0.00 | 0.00 | 0.00 | 34 | 1013.0 |
| 20260503181612 | 57 | 299 | 11.0 | 22.0 | 0.00 | 0.00 | 0.00 | 35 | 1013.4 |
| 20260503181605 | 57 | 308 | 10.0 | 22.0 | 0.00 | 0.00 | 0.00 | 36 | 1013.3 |
| 20260503181103 | 58 | 326 | 10.0 | 20.0 | 0.00 | 0.00 | 0.00 | 34 | 1012.9 |
| 20260503180103 | 58 | 302 | 7.0 | 17.0 | 0.00 | 0.00 | 0.00 | 38 | 1013.0 |
| 20260503180041 | 57 | 308 | 6.0 | 18.0 | 0.00 | 0.00 | 0.00 | 35 | 1013.4 |
| 20260503175554 | 57 | 269 | 11.0 | 17.0 | 0.00 | 0.00 | 0.00 | 34 | 1013.1 |
| 20260503175312 | 58 | 291 | 4.0 | 17.0 | 0.00 | 0.00 | 0.00 | 38 | 1013.1 |
| 20260503174812 | 58 | 296 | 6.0 | 17.0 | 0.00 | 0.00 | 0.00 | 38 | 1012.9 |
| 20260503174551 | 57 | 282 | 7.0 | 21.0 | 0.00 | 0.00 | 0.00 | 38 | 1013.3 |
| 20260503174043 | 58 | 298 | 6.0 | 17.0 | 0.00 | 0.00 | 0.00 | 40 | 1013.1 |
| 20260503173538 | 57 | 281 | 9.0 | 17.0 | 0.00 | 0.00 | 0.00 | 37 | 1013.3 |
| 20260503173052 | 56 | 225 | 11.0 | 21.0 | 0.00 | 0.00 | 0.00 | 38 | 1013.5 |
| 20260503173033 | 57 | 225 | 12.0 | 17.0 | 0.00 | 0.00 | 0.00 | 38 | 1013.3 |
| 20260503172529 | 56 | 281 | 6.0 | 16.0 | 0.00 | 0.00 | 0.00 | 38 | 1013.3 |
| 20260503172026 | 56 | 289 | 7.0 | 16.0 | 0.00 | 0.00 | 0.00 | 39 | 1013.5 |
| 20260503171538 | 55 | 275 | 8.0 | 18.0 | 0.00 | 0.00 | 0.00 | 36 | 1013.8 |
| 20260503171521 | 56 | 284 | 9.0 | 17.0 | 0.00 | 0.00 | 0.00 | 37 | 1013.6 |
| 20260503171016 | 57 | 272 | 11.0 | 17.0 | 0.00 | 0.00 | 0.00 | 37 | 1013.6 |
| 20260503170512 | 56 | 292 | 13.0 | 17.0 | 0.00 | 0.00 | 0.00 | 39 | 1013.5 |
| 20260503160139 | 51 | 282 | 6.0 | 13.0 | 0.00 | 0.00 | 0.00 | 44 | 1014.1 |